Barking Sands, HI

3:08 PM HST on March 26, 2017 (GMT -1000)
Barking Sands PMRF

Weather History for PHBK - February, 2014

Change the Weather History Date:

Monday, February 10, 2014

  Actual Average Record
Temperature  
Mean Temperature 75 °F -  
Max Temperature 75 °F 81 °F 86 °F (1967)
Min Temperature 73 °F 61 °F 56 °F (1970)
Cooling Degree Days 10    
Growing Degree Days 25 (Base 50)    
Moisture  
Dew Point 65 °F    
Average Humidity 70    
Maximum Humidity 76    
Minimum Humidity 64    
Precipitation  
Precipitation 1.03 in - - ()
Sea Level Pressure  
Sea Level Pressure 29.95 in    
Wind  
Wind Speed 11 mph (SSE)    
Max Wind Speed 18 mph    
Max Gust Speed 24 mph    
Visibility 8 miles    
Events Rain    
Averages and records for this station are not official NWS values.
T = Trace of Precipitation, MM = Missing Value Source: NWS Daily Summary

Daily Weather History Graph

Daily Weather History Graph

Search for Another Location

Airport or City:

Trip Planner

Search our weather history database for the weather conditions in past years. The results will help you decide how hot, cold, wet, or windy it might be!

Date:

Astronomy

Feb. 10, 2014 Rise Set
Actual Time 7:13 AM HST 6:33 PM HST
Civil Twilight 6:50 AM HST 6:56 PM HST
Nautical Twilight 6:23 AM HST 7:23 PM HST
Astronomical Twilight 5:57 AM HST 7:49 PM HST
Moon 3:23 PM HST (2/10) 4:03 AM HST (2/10)
Length of Visible Light 12h 06m
Length of Day
11h 20m
Waxing Gibbous, 86% of the Moon is Illuminated
Feb 10
Waxing Gibbous
Feb 14
Full
Feb 22
Last Quarter
Feb 28
New
Mar 8
First Quarter

Hourly Weather History & Observations

Time (HST) Temp. Dew Point Humidity Pressure Visibility Wind Dir Wind Speed Gust Speed Precip Events Conditions
12:56 AM - - N/A% 29.95 in 10.0 mi SE 9.2 mph - N/A   Scattered Clouds
1:17 AM - - N/A% 29.95 in 10.0 mi SE 12.7 mph 18.4 mph N/A   Mostly Cloudy
1:35 AM - - N/A% 29.95 in 10.0 mi SSE 9.2 mph - N/A   Mostly Cloudy
1:43 AM - - N/A% 29.95 in 10.0 mi SE 11.5 mph - N/A   Scattered Clouds
1:56 AM - - N/A% 29.96 in 9.0 mi SE 10.4 mph - N/A   Partly Cloudy
2:56 AM 75.9 °F 63.0 °F 64% 29.95 in 10.0 mi SE 12.7 mph 19.6 mph N/A   Mostly Cloudy
3:56 AM 75.0 °F 64.9 °F 71% 29.93 in 10.0 mi SSE 8.1 mph - N/A   Partly Cloudy
4:56 AM 73.9 °F 66.0 °F 76% 29.92 in 10.0 mi SE 10.4 mph - N/A   Clear
5:56 AM - - N/A% 29.94 in 10.0 mi SE 11.5 mph - N/A   Mostly Cloudy
6:56 AM - - N/A% 29.95 in 6.0 mi SSE 3.5 mph - 0.01 in Rain Light Rain
7:12 AM - - N/A% 29.95 in - South 11.5 mph 17.3 mph 0.06 in Rain Rain
7:14 AM - - N/A% 29.95 in - SSE 11.5 mph 17.3 mph 0.08 in Rain Heavy Rain
7:21 AM - - N/A% 29.95 in 1.2 mi SE 15.0 mph 20.7 mph 0.16 in Rain Heavy Rain
7:27 AM - - N/A% 29.95 in - SSE 11.5 mph 20.7 mph 0.17 in Rain Rain
7:29 AM - - N/A% 29.95 in - SSE 11.5 mph 20.7 mph 0.17 in Rain Light Rain
7:56 AM - - N/A% 29.96 in 10.0 mi SE 11.5 mph 19.6 mph 0.17 in   Overcast
8:31 AM - - N/A% 29.95 in 10.0 mi SE 13.8 mph - N/A   Overcast
8:56 AM - - N/A% 29.97 in 10.0 mi SE 15.0 mph 24.2 mph 0.01 in   Partly Cloudy
9:56 AM - - N/A% 29.98 in 10.0 mi SE 12.7 mph 23.0 mph N/A   Mostly Cloudy
10:18 AM - - N/A% 29.97 in 10.0 mi SSE 12.7 mph 20.7 mph N/A   Overcast
10:37 AM - - N/A% 29.98 in 10.0 mi SE 12.7 mph 20.7 mph N/A   Overcast
10:56 AM - - N/A% 29.98 in 10.0 mi SE 13.8 mph 20.7 mph N/A   Overcast
11:04 AM - - N/A% 29.97 in 10.0 mi SSE 13.8 mph 19.6 mph 0.00 in Rain Light Rain
11:32 AM - - N/A% 29.96 in 10.0 mi SE 13.8 mph 21.9 mph 0.00 in   Scattered Clouds
11:56 AM - - N/A% 29.96 in 10.0 mi SE 13.8 mph 19.6 mph 0.00 in   Mostly Cloudy
12:25 PM - - N/A% 29.94 in 10.0 mi SSE 8.1 mph 17.3 mph N/A   Overcast
12:48 PM - - N/A% 29.92 in 10.0 mi SSE 12.7 mph 21.9 mph N/A   Mostly Cloudy
12:56 PM - - N/A% 29.93 in 10.0 mi SSE 12.7 mph 19.6 mph N/A   Mostly Cloudy
1:21 PM - - N/A% 29.92 in 6.0 mi SSE 15.0 mph 24.2 mph N/A   Haze
1:24 PM - - N/A% 29.92 in - SSE 12.7 mph 24.2 mph 0.02 in Rain Rain
1:37 PM - - N/A% 29.91 in 10.0 mi SSE 12.7 mph 23.0 mph 0.02 in   Overcast
1:54 PM - - N/A% 29.90 in 10.0 mi SSE 13.8 mph 21.9 mph 0.02 in   Mostly Cloudy
1:56 PM - - N/A% 29.91 in 10.0 mi SSE 16.1 mph 23.0 mph 0.02 in   Mostly Cloudy
2:17 PM - - N/A% 29.91 in 10.0 mi South 13.8 mph 24.2 mph N/A   Overcast
2:56 PM - - N/A% 29.91 in 6.0 mi SSE 10.4 mph 18.4 mph 0.00 in Rain Light Rain
3:56 PM - - N/A% 29.90 in 10.0 mi SSE 11.5 mph 18.4 mph 0.00 in   Overcast
4:39 PM - - N/A% 29.91 in 6.2 mi WSW 8.1 mph - 0.00 in Rain Light Rain
4:48 PM - - N/A% 29.91 in - SW 9.2 mph - 0.04 in Rain Rain
4:51 PM - - N/A% 29.91 in 1.0 mi SW 9.2 mph - 0.10 in Rain Heavy Rain
4:56 PM - - N/A% 29.92 in 0.8 mi WSW 18.4 mph 21.9 mph 0.15 in Rain Heavy Rain
5:03 PM - - N/A% 29.92 in 0.5 mi WSW 15.0 mph 21.9 mph 0.13 in Rain Heavy Rain
5:09 PM - - N/A% 29.92 in 0.8 mi WSW 12.7 mph - 0.20 in Rain Heavy Rain
5:44 PM - - N/A% 29.94 in 1.2 mi West 9.2 mph - 0.49 in Rain Light Rain
5:49 PM - - N/A% 29.94 in 2.5 mi West 9.2 mph - 0.50 in Rain Light Rain
5:51 PM - - N/A% 29.94 in - West 10.4 mph - 0.50 in Rain Light Rain
5:56 PM - - N/A% 29.96 in 1.8 mi West 6.9 mph - 0.52 in Rain Rain
6:05 PM - - N/A% 29.95 in 1.0 mi West 12.7 mph - 0.05 in Rain Rain
6:10 PM - - N/A% 29.95 in 1.2 mi WSW 11.5 mph - 0.07 in Rain Heavy Rain
6:29 PM - - N/A% 29.96 in 2.5 mi West 10.4 mph - 0.13 in Rain Light Rain
6:32 PM - - N/A% 29.96 in - West 10.4 mph - 0.13 in Rain Light Rain
6:51 PM - - N/A% 29.96 in - WNW 6.9 mph - 0.15 in Rain Rain
6:56 PM - - N/A% 29.97 in 4.0 mi WNW 6.9 mph - 0.15 in Rain Light Rain
7:08 PM - - N/A% 29.97 in 10.0 mi Calm Calm - 0.00 in   Overcast
7:16 PM - - N/A% 29.97 in 6.2 mi NE 3.5 mph - 0.00 in Rain Light Rain
7:56 PM - - N/A% 29.98 in 10.0 mi East 6.9 mph - 0.00 in   Overcast
8:56 PM - - N/A% 30.00 in 10.0 mi ESE 6.9 mph - N/A   Overcast
9:56 PM - - N/A% 30.02 in 10.0 mi ESE 3.5 mph - N/A   Overcast
10:56 PM - - N/A% 30.02 in 10.0 mi ESE 4.6 mph - N/A   Mostly Cloudy
11:56 PM - - N/A% 30.02 in 10.0 mi SE 4.6 mph - N/A   Mostly Cloudy